Regional Weather Roundup
Issued by NWS

Home | Current Version | Previous Version | Graphics & Text | Print | Product List | Glossary On
Versions: 1 2 3 4 5 6 7 8 9 10 11 12 13 14 15 16 17 18 19 20 21 22 23 24 25 26 27 28 29 30 31 32 33 34 35 36 37 38 39 40 41 42 43 44 45 46 47 48 49 50
000
ASUS43 KLMK 262010
RWRKY
KENTUCKY REGIONAL WEATHER ROUNDUP
NATIONAL WEATHER SERVICE LOUISVILLE KY
400 PM EDT TUE MAY 26 2015

NOTE "FAIR" INDICATES FEW OR NO CLOUDS BELOW 12,000 FEET
WITH NO SIGNIFICANT WEATHER AND/OR OBSTRUCTIONS TO VISIBILITY.

KYZ001>023-026-027-061>063-070>075-262100-
WESTERN AND SOUTH CENTRAL KENTUCKY

CITY           SKY/WX    TMP DP  RH WIND       PRES   REMARKS
PADUCAH        MOSUNNY   79  61  53 SW16G25   29.99F
HENDERSON      CLOUDY    79  63  57 SW16      29.96S
OWENSBORO      CLOUDY    80  68  67 SW20      29.98F
HOPKINSVILLE   CLOUDY    80  68  67 S10       30.00F
BOWLING GREEN  LGT RAIN  70  66  87 SW8       30.03F
GLASGOW        CLOUDY    78  68  70 SW13      30.04F
$$

KYZ024-025-028>034-038-045-046-053-262100-
NORTH CENTRAL KENTUCKY

CITY           SKY/WX    TMP DP  RH WIND       PRES   REMARKS
LOUISVILLE/SDF CLOUDY    77  69  76 SW13G21   29.99F
LOUISVILLE/LOU CLOUDY    76  69  79 SW13G21   30.00F
FORT KNOX      CLOUDY    76  67  74 S14G20    30.00F
$$

KYZ035>037-039>044-047>052-055>060-089>105-262100-
NORTHEAST KENTUCKY

CITY           SKY/WX    TMP DP  RH WIND       PRES   REMARKS
LEXINGTON      CLOUDY    80  67  64 S13G22    30.02F
COVINGTON      CLOUDY    80  69  69 S20G25    29.99F
FRANKFORT      CLOUDY    80  67  64 S15       30.01F
$$

KYZ054-064>069-076>088-106>120-262100-
SOUTHEAST KENTUCKY

CITY           SKY/WX    TMP DP  RH WIND       PRES   REMARKS
JACKSON        MOSUNNY   85  64  49 VRB5      30.09F
LONDON         MOSUNNY   86  61  42 SW12G21   30.08F
SOMERSET       CLOUDY    81  63  54 S7        30.07F
MIDDLESBORO    PTSUNNY   84  67  58 SW6       30.11F
MONTICELLO     MOCLDY    86  67  52 S10       30.08F
$$



USA.gov is the U.S. government's official web portal to all federal, state and local government web resources and services.